Presure
159 145 160 153 155 100 150 156 176 180 171 180 169 200 189 205 232 153 194 262 147 187 133 159 150 204 130 163 171 160 152 164 138 170 216 187 162 195 184 165 210 204 168
133 149 150 145 144 168 169 174 197 182 222 167 237 208 241 255 188 267 164 188 231 153 122 80 219 85 134 132 135 118 152 149 226 204 153 208 196 140 159 226 225 202 213
139 163 160 164 169 175 179 189 232 235 204 233 238 244 222 254 255 247 234 254 229 227 227 243 243 134 149 213 218 237 216 166 183 172 220 136 132 175 117 228 159 147 131
169 168 192 176 171 185 187 212 230 226 227 228 225 230 204 216 256 267 250 242 244 242 130 224 226 188 173 235 228 222 221 202 216 167 196 168 189 147 156 177 213 190 201
169 163 198 201 211 210 229 236 225 222 229 209 239 233 243 257 229 230 265 267 238 65 245 247 205 233 239 226 234 239 218 206 196 197 191 199 88 201 188 188 180 194 165
196 227 259 227 224 228 230 277 231 246 254 247 238 251 240 227 281 228 257 253 251 238 220 226 223 232 227 204 211 211 215 211 205 193 198 194 195 202 193 196 204 195 191
224 256 256 272 266 260 269 254 252 254 295 272 268 261 271 255 255 255 247 229 245 233 217 226 218 206 232 211 220 225 226 212 180 185 170 145 193 177 197 208 187 178 193
292 268 255 251 258 258 256 263 282 291 286 275 260 262 265 267 257 261 250 238 230 232 222 229 216 204 206 220 212 195 197 214 193 188 209 179 150 138 196 165 183 203 151
288 270 249 245 236 278 275 263 269 260 252 261 256 260 259 254 262 245 248 245 237 235 229 233 175 216 207 189 187 196 184 214 218 180 199 195 183 90 199 188 168 159 160
264 283 296 241 280 263 266 265 255 257 255 244 249 245 239 240 238 248 247 223 246 235 226 227 207 195 198 198 193 192 183 183 196 185 183 188 226 217 174 167 186 169 162
236 230 253 275 250 269 250 253 247 239 243 250 257 252 246 239 238 233 235 235 228 233 226 217 208 203 211 195 186 166 181 187 179 124 177 183 188 152 182 173 184 187 192
272 242 264 248 246 244 241 245 274 253 262 290 282 280 238 240 239 223 234 231 230 228 234 217 213 196 204 199 200 181 196 181 175 180 157 138 146 188 188 187 174 184 199
221 220 210 198 213 231 239 234 215 211 225 208 221 223 256 263 284 270 237 232 230 227 230 224 221 205 189 200 180 206 206 186 181 179 171 182 192 193 182 184 186 197 175
210 227 225 220 197 193 205 206 215 218 222 215 224 215 215 234 206 231 249 247 223 236 225 231 223 227 197 191 186 181 189 207 178 188 182 177 186 186 186 200 183 189 182
218 185 210 202 205 215 203 200 215 215 215 210 205 199 224 206 228 214 216 220 239 249 228 230 229 227 230 201 184 192 182 179 189 190 178 181 179 177 182 187 192 186 180
188 195 200 200 205 204 191 188 202 187 179 207 215 198 203 182 204 207 215 222 205 222 233 225 247 232 230 251 197 180 182 182 183 192 178 189 179 181 174 181 185 180 175
200 195 195 195 185 177 188 185 189 205 196 185 182 188 177 191 205 204 203 223 209 198 215 239 245 227 236 252 226 217 187 177 181 178 182 192 179 181 176 179 177 179 183
210 208 209 206 201 206 202 198 203 209 204 202 195 206 144 195 195 202 211 207 212 224 225 213 212 233 217 231 241 244 231 203 191 178 172 195 185 179 183 179 177 166 178
207 208 202 198 198 197 197 200 196 200 199 194 193 203 202 198 202 204 204 203 197 214 191 214 218 209 228 239 237 251 231 248 214 199 190 182 186 197 174 192 179 177 177
178 192 193 181 193 195 190 191 200 198 195 197 201 193 192 201 204 202 200 196 201 203 203 212 216 209 227 220 248 234 237 232 248 226 191 200 185 180 192 197 199 194 183
174 179 185 184 178 168 173 183 182 185 193 198 197 195 196 190 194 203 202 197 194 203 206 203 205 219 224 235 234 255 239 255 226 257 256 196 205 185 174 201 201 197 204
178 189 189 180 176 165 172 182 186 184 185 186 186 196 197 194 194 191 192 193 196 198 203 205 208 205 214 221 231 257 252 243 252 242 253 267 205 194 196 182 180 180 180
172 173 186 175 172 171 173 190 189 178 183 175 180 185 192 187 191 192 191 191 201 201 202 203 209 215 201 215 221 267 286 292 255 246 248 248 275 258 206 195 194 188 185
180 180 169 182 169 178 179 162 177 176 189 183 183 184 184 186 188 195 194 198 201 205 205 211 212 214 230 233 241 267 298 298 264 255 254 263 255 274 268 240 202 201 207
181 183 178 165 165 172 180 177 176 143 168 177 182 198 197 194 199 192 193 201 208 209 215 219 221 217 229 234 234 298 296 278 266 264 265 266 294 277 282 273 236 213 205
169 171 170 171 153 134 177 153 179 178 180 174 164 175 136 178 178 198 189 213 211 209 217 223 222 234 240 254 253 233 303 286 274 289 341 300 293 300 309 314 256 264 271
Wind_Speed
97 92 103 100 101 50 103 107 120 124 112 114 106 113 113 124 114 100 100 91 101 94 69 98 99 87 87 105 103 92 106 105 82 74 67 69 96 65 94 75 63 58 97
86 94 97 97 99 117 126 120 135 117 129 104 108 115 100 95 100 83 100 96 88 99 70 23 64 32 94 92 95 57 107 96 57 73 84 71 67 73 93 53 42 70 65
91 109 105 115 118 128 126 130 107 112 117 106 101 96 103 89 87 87 92 77 83 79 77 67 61 91 99 72 64 62 70 54 67 60 55 57 55 66 56 48 84 71 54
119 112 133 121 117 132 125 123 113 109 105 99 100 95 98 91 75 68 76 75 68 63 44 68 63 50 48 61 63 63 64 72 59 54 69 57 77 56 67 70 55 66 67
117 110 131 136 131 123 114 105 106 106 103 99 94 91 78 61 75 74 55 53 59 27 53 55 45 56 63 66 58 53 68 73 74 72 77 70 57 70 78 72 79 61 75
136 123 98 115 112 110 107 65 105 88 73 76 79 72 71 73 44 61 49 47 44 50 53 52 54 56 57 62 71 69 70 75 76 76 71 73 73 71 74 68 62 63 64
116 97 94 63 71 70 61 72 74 71 44 51 47 48 44 47 48 48 46 49 43 46 47 51 54 58 59 62 72 62 66 74 64 66 74 64 75 73 72 72 71 67 57
43 59 64 69 64 60 62 53 35 29 30 33 39 39 37 37 40 40 41 43 45 46 47 57 59 63 64 68 61 71 71 72 80 76 78 80 65 63 75 69 60 56 63
37 43 51 55 61 35 34 39 29 27 30 26 29 29 30 34 34 39 38 42 45 47 51 56 51 66 66 69 68 67 73 59 62 77 78 80 79 67 74 77 64 64 59
34 28 19 45 22 23 24 23 24 23 24 25 25 24 26 28 31 33 34 41 46 51 53 58 61 64 71 76 73 76 76 78 85 84 77 83 68 68 69 69 67 60 57
30 35 25 19 23 21 21 19 21 24 22 21 23 23 24 27 29 33 34 38 43 48 52 57 62 71 74 81 75 68 78 83 83 57 87 85 84 69 74 69 74 74 61
16 10 21 25 24 20 16 14 17 17 18 16 19 21 23 25 28 32 34 37 43 48 53 58 66 69 76 81 81 77 84 81 85 88 81 74 78 89 80 79 67 70 65
13 5 12 36 15 21 29 21 17 16 19 16 20 17 24 22 17 26 32 36 40 45 52 58 67 73 77 82 82 79 86 93 89 90 87 99 97 93 88 83 80 71 72
15 20 21 20 23 29 16 18 23 24 25 25 27 27 27 32 23 30 29 31 37 42 48 56 63 71 81 85 83 85 91 96 88 97 97 93 96 95 92 86 81 77 78
16 34 16 16 17 18 16 18 19 20 21 21 25 25 22 25 27 30 33 31 36 35 41 48 56 68 77 92 90 95 95 92 95 95 96 98 96 95 94 97 88 83 81
26 22 17 18 14 15 26 27 20 30 36 21 16 24 24 37 24 24 27 26 30 31 36 41 46 57 68 71 102 92 100 105 104 102 94 109 100 100 93 95 94 88 80
14 18 20 20 26 35 25 26 24 16 27 34 37 35 40 32 26 26 33 28 36 40 40 37 46 53 57 62 84 98 110 96 109 106 109 112 106 106 101 103 96 95 100
14 14 13 13 18 16 20 23 22 22 20 25 30 26 46 29 28 31 30 31 32 36 40 46 48 44 56 62 67 73 92 117 119 111 95 115 120 113 117 110 107 80 102
28 25 22 24 26 26 27 26 29 28 30 33 39 36 36 39 38 35 36 38 44 41 50 46 44 52 49 53 63 67 77 81 109 123 129 118 123 124 101 124 112 109 107
23 28 27 29 33 32 35 37 37 38 41 41 39 44 47 46 44 43 45 50 50 51 52 55 54 56 53 56 57 65 71 80 83 105 122 126 132 114 123 125 127 126 119
29 33 35 34 34 33 38 42 43 45 45 45 44 45 44 52 54 52 51 53 56 59 62 62 61 66 64 62 63 64 66 69 85 79 85 125 126 129 98 125 129 130 126
32 37 38 37 37 36 44 47 46 48 52 53 53 49 46 49 53 57 61 61 64 65 66 70 71 69 71 71 70 77 71 72 75 85 86 85 130 127 133 117 113 103 103
39 38 44 37 39 42 47 51 50 51 55 54 59 59 58 60 61 63 65 69 69 70 74 75 77 79 73 76 76 88 83 76 78 86 88 93 87 99 133 138 139 133 122
52 53 41 56 43 51 53 42 52 53 56 59 63 64 66 66 68 69 70 73 75 75 77 78 79 80 89 89 87 93 86 79 79 82 90 92 96 93 96 105 137 139 133
59 60 60 47 49 55 69 69 64 49 51 68 73 77 77 77 78 77 77 81 83 81 84 86 88 85 88 90 87 92 86 82 82 82 83 93 92 94 94 96 106 133 133
61 63 65 67 53 42 74 60 80 75 76 72 69 77 57 76 78 87 85 93 91 89 88 91 91 93 97 94 90 66 85 83 86 86 81 83 91 95 91 92 101 98 109
Wind_Direction
283 273 282 277 276 283 275 276 282 283 278 280 275 284 280 287 286 270 279 282 268 272 262 263 264 269 273 262 263 277 270 266 264 270 264 264 261 251 257 260 250 242 259
273 276 276 275 275 284 286 282 290 284 291 276 288 289 286 282 276 285 270 275 282 268 269 233 275 259 271 272 273 258 266 274 252 266 271 257 252 266 260 242 236 248 248
279 286 281 282 283 286 286 287 285 288 288 285 287 284 286 285 282 283 283 283 278 279 280 279 275 268 267 267 266 243 250 261 256 250 246 265 258 260 244 239 256 259 250
286 285 287 282 283 286 286 289 290 289 288 286 286 284 284 284 282 280 279 279 276 277 265 277 275 262 259 254 245 242 236 249 235 243 248 244 255 248 254 252 238 249 250
284 285 289 286 287 288 288 287 285 286 286 286 284 282 284 282 282 279 272 271 274 258 264 258 257 252 248 251 224 225 233 242 248 245 250 243 251 243 254 252 255 245 258
290 287 285 286 287 285 283 276 281 282 280 280 282 282 280 280 269 280 267 262 256 260 263 257 262 249 240 258 248 243 234 235 239 251 239 241 245 239 249 246 236 244 248
288 285 284 280 279 280 285 282 283 283 276 282 276 280 275 274 268 264 264 269 245 249 255 246 249 257 223 241 236 231 228 232 234 233 243 236 246 245 244 236 252 260 250
282 283 281 283 286 286 284 282 281 285 284 277 275 272 271 268 264 258 253 254 252 247 244 237 237 248 244 222 237 253 255 235 250 255 238 261 246 251 249 245 249 244 251
277 286 290 289 290 286 285 286 290 288 283 285 286 285 280 272 264 257 251 250 242 239 235 234 240 235 237 247 252 247 259 241 239 257 244 252 257 255 248 256 259 255 252
293 290 291 284 296 290 290 296 295 294 287 283 279 275 275 273 270 267 256 258 241 236 233 232 233 236 242 236 240 247 255 255 250 258 255 257 237 242 256 254 255 256 250
295 293 298 305 299 301 312 311 305 302 307 302 297 291 278 276 272 264 257 255 250 243 234 232 230 236 229 239 245 246 250 250 255 242 263 261 255 258 260 257 263 265 250
62 34 38 28 18 13 357 331 8 355 346 337 317 312 298 286 279 273 268 259 252 246 243 235 230 238 240 236 238 248 234 247 253 251 257 261 262 260 257 253 255 257 247
285 302 294 294 347 29 28 6 311 324 348 294 335 332 346 325 316 281 273 266 259 251 248 241 236 229 240 237 255 240 229 235 244 250 260 257 256 257 261 264 262 250 254
339 24 29 13 287 291 330 329 357 354 1 348 353 335 335 339 292 324 324 301 272 264 260 252 244 242 234 241 249 252 248 235 254 246 251 259 257 259 262 255 262 259 261
53 302 10 335 345 16 324 321 15 12 4 351 340 306 339 313 331 320 317 311 314 298 274 263 257 249 242 234 245 241 253 260 253 247 256 255 258 264 262 260 255 256 262
306 307 306 319 339 332 311 303 339 298 290 342 351 309 317 281 318 313 309 305 282 300 297 275 278 261 252 255 236 250 248 252 254 253 259 250 259 258 265 265 262 261 261
331 328 331 326 299 294 314 306 309 305 307 297 292 290 281 294 314 304 300 311 291 271 283 309 294 266 265 264 248 244 244 253 249 256 257 251 259 256 262 260 264 267 263
332 330 334 331 324 331 323 319 322 326 315 312 306 317 281 296 291 294 308 298 303 314 299 281 274 293 264 270 266 259 248 242 243 252 262 253 254 258 256 258 260 260 262
347 343 338 335 330 323 319 317 313 312 309 304 304 313 308 301 303 303 298 295 283 309 282 290 295 273 287 283 274 274 256 259 244 245 246 254 255 252 259 251 258 259 262
325 332 330 324 329 325 321 319 316 313 310 308 309 307 307 310 307 302 297 291 294 294 289 297 293 276 294 273 295 270 267 257 260 248 246 246 251 257 254 250 249 248 253
316 324 326 323 320 309 316 317 318 318 312 311 309 307 305 303 303 304 302 296 292 298 298 290 289 298 297 296 288 290 272 274 258 266 258 244 245 250 261 251 250 251 247
317 323 318 317 317 305 316 315 315 312 310 307 308 304 300 297 297 297 297 297 296 296 297 296 292 288 290 291 289 298 279 271 266 263 263 261 242 246 246 254 259 259 260
315 313 315 310 309 313 313 313 311 310 309 309 308 307 305 302 299 297 296 296 299 297 296 294 296 295 283 288 288 301 289 279 267 262 259 258 259 250 242 245 247 254 257
314 313 313 318 307 310 308 294 308 307 302 302 302 302 301 299 297 294 294 295 296 296 294 295 293 294 302 298 296 299 288 278 267 261 261 258 254 253 249 242 244 246 249
314 315 316 313 300 316 315 314 313 291 304 312 311 308 305 302 299 298 298 298 298 297 299 298 298 294 297 298 293 293 284 276 269 262 259 263 259 251 249 245 241 243 244
311 313 311 314 313 288 310 302 305 305 302 306 302 306 281 301 299 300 300 302 299 296 297 298 297 298 301 298 294 282 281 275 271 271 265 255 255 254 249 245 242 241 233